Bloemfontein, South Africa

10:17 PM SAST on September 23, 2017 (GMT +0200)
Bloemfontein

Weather History for FABL - January, 2013

Change the Weather History Date:

Friday, January 18, 2013

  Actual Average Record
Temperature  
Mean Temperature 71 °F -  
Max Temperature 79 °F 83 °F 86 °F (2015)
Min Temperature 63 °F 56 °F 49 °F (2015)
Cooling Degree Days 6    
Growing Degree Days 21 (Base 50)    
Moisture  
Dew Point 61 °F    
Average Humidity 76    
Maximum Humidity 94    
Minimum Humidity 46    
Precipitation  
Precipitation 0.00 in 0.13 in - ()
Sea Level Pressure  
Sea Level Pressure 30.04 in    
Wind  
Wind Speed 4 mph ()    
Max Wind Speed 10 mph    
Max Gust Speed -    
Visibility 9.0 miles    
Events Rain    
Averages and records for this station are not official NWS values.
T = Trace of Precipitation, MM = Missing Value Source: Averaged Metar Reports

Daily Weather History Graph

Daily Weather History Graph

Search for Another Location

Airport or City:

Trip Planner

Search our weather history database for the weather conditions in past years. The results will help you decide how hot, cold, wet, or windy it might be!

Date:

Astronomy

Jan. 18, 2013 Rise Set
Actual Time 5:32 AM SAST 7:17 PM SAST
Civil Twilight 5:06 AM SAST 7:43 PM SAST
Nautical Twilight 4:34 AM SAST 8:15 PM SAST
Astronomical Twilight 4:01 AM SAST 8:48 PM SAST
Moon 12:06 PM SAST (1/18) 11:31 PM SAST (1/18)
Length of Visible Light 14h 36m
Length of Day
13h 44m
Waxing Crescent, 44% of the Moon is Illuminated
Jan 18
Waxing Crescent
Jan 19
First Quarter
Jan 27
Full
Feb 3
Last Quarter
Feb 10
New

Hourly Weather History & Observations

Time (SAST) Temp. Dew Point Humidity Pressure Visibility Wind Dir Wind Speed Gust Speed Precip Events Conditions
12:00 AM 66.2 °F 60.8 °F 83% 30.09 in - SSE 3.5 mph - N/A   Unknown
1:00 AM 64.4 °F 60.8 °F 88% 30.09 in - ESE 3.5 mph - N/A   Unknown
2:00 AM 64 °F 62 °F 90%  in - ENE 2.3 mph - -  
2:00 AM 64.4 °F 60.8 °F 88% 30.09 in - ENE 2.3 mph - N/A   Unknown
3:00 AM 62.6 °F 60.8 °F 94% 30.09 in - South 4.6 mph - N/A   Unknown
4:00 AM 62.6 °F 60.8 °F 94% 30.06 in - ESE 2.3 mph - N/A   Unknown
5:00 AM 64 °F 61 °F 86%  in 25 mi East 4.6 mph - -   Overcast
5:00 AM 64.4 °F 60.8 °F 88% 30.06 in 6.2 mi ESE 5.8 mph - N/A   Mostly Cloudy
6:00 AM 64.4 °F 60.8 °F 88% 30.06 in 6.2 mi SSE 5.8 mph - N/A Rain Light Rain
7:00 AM 64.4 °F 60.8 °F 88% 30.09 in 6.2 mi East 4.6 mph - N/A   Overcast
8:00 AM 65 °F 62 °F 86%  in 16 mi NNE 5.8 mph - - Rain Light Rain
8:00 AM 64.4 °F 60.8 °F 88% 30.12 in 6.2 mi NNE 4.6 mph - N/A Rain Light Rain
9:00 AM 66.2 °F 60.8 °F 83% 30.09 in 6.2 mi NE 8.1 mph - N/A   Mostly Cloudy
10:00 AM 71.6 °F 60.8 °F 69% 30.09 in 6.2 mi NNE 8.1 mph - N/A   Scattered Clouds
11:00 AM 75 °F 61 °F 53%  in 19 mi North 4.6 mph - -   Mostly Cloudy
11:00 AM 73.4 °F 60.8 °F 65% 30.06 in 6.2 mi North 4.6 mph - N/A   Mostly Cloudy
12:00 PM 75.2 °F 60.8 °F 61% 30.04 in 6.2 mi Variable 3.5 mph - N/A   Mostly Cloudy
1:00 PM 75.2 °F 60.8 °F 61% 30.04 in 6.2 mi WNW 5.8 mph - N/A   Overcast
2:00 PM 78 °F 61 °F 46%  in 19 mi West 2.3 mph - -   Mostly Cloudy
2:00 PM 77.0 °F 60.8 °F 57% 30.01 in 6.2 mi West 1.2 mph - N/A   Mostly Cloudy
3:00 PM 77.0 °F 60.8 °F 57% 29.98 in 6.2 mi ESE 3.5 mph - N/A   Scattered Clouds
4:00 PM 77.0 °F 62.6 °F 61% 29.98 in 6.2 mi SE 6.9 mph - N/A Rain Light Rain Showers
5:00 PM 77 °F 62 °F 50%  in 19 mi NE 10.4 mph - -   Partly Cloudy
5:00 PM 75.2 °F 60.8 °F 61% 29.98 in 6.2 mi NE 9.2 mph - N/A   Scattered Clouds
6:00 PM 75.2 °F 62.6 °F 65% 29.95 in 6.2 mi NE 10.4 mph - N/A   Scattered Clouds
7:00 PM 73.4 °F 60.8 °F 65% 29.98 in 6.2 mi NE 6.9 mph - N/A   Scattered Clouds
8:00 PM 70 °F 64 °F 77%  in 19 mi NNW 8.1 mph - -   Scattered Clouds
8:00 PM 69.8 °F 62.6 °F 78% 30.01 in 6.2 mi NNW 8.1 mph - N/A   Scattered Clouds
9:00 PM 68.0 °F 62.6 °F 83% 30.01 in 6.2 mi North 8.1 mph - N/A   Unknown
10:00 PM 64.4 °F 62.6 °F 94% 30.04 in - North 3.5 mph - N/A   Unknown
11:00 PM 65 °F 62 °F 88%  in - North 4.6 mph - -  
11:00 PM 64.4 °F 60.8 °F 88% 30.04 in - North 3.5 mph - N/A   Unknown